Location: Kruen
(47.5000°N, 11.5000°E)
Time: 15:41:01
(UTC+01:00)

BlueWalker 3 - Pass Details

Date: 25 February 2026
Orbit: 451 x 457 km, 53.2° (Epoch: 14 March)

Event Time Altitude Azimuth Distance (km) Brightness Sun altitude
Exits shadow 05:40:16 - 205° (SSW) 1,761 4.4 -14.6°
Reaches altitude 10° 05:40:44 10° 202° (SSW) 1,590 4.2 -14.5°
Maximum altitude 05:43:55 31° 139° (SE) 826 3.4 -14.0°
Drops below altitude 10° 05:47:08 10° 76° (ENE) 1,597 5.8 -13.4°
Sets 05:49:25 0° 66° (ENE) 2,472 6.8 -13.0°
